This is the latest recevied weather packets stored in our database for station/object K42C. If no packets are shown the sender has not sent any weather packets the latest 10 day(s).
| Time | Temp. | Humidity | Pressure | Rain* | Wind** | Luminosity | Snow |
|---|---|---|---|---|---|---|---|
| 1777967128 | 11.67° C | 67% | 964.4 hPa | 0 mm | 0.89 m/s, 284° | - | - |
| 1777966730 | 11.67° C | 66% | 964.3 hPa | 0 mm | 0 m/s | - | - |
| 1777966330 | 12.22° C | 64% | 964.1 hPa | 0 mm | 0 m/s | - | - |
| 1777965932 | 12.22° C | 63% | 963.9 hPa | 0 mm | 0.45 m/s, 266° | - | - |
| 1777965531 | 12.22° C | 63% | 963.9 hPa | 0 mm | 0 m/s | - | - |
| 1777965134 | 12.78° C | 63% | 963.8 hPa | 0 mm | 0 m/s | - | - |
| 1777964733 | 12.78° C | 63% | 963.9 hPa | 0 mm | 1.34 m/s, 270° | - | - |
| 1777964336 | 12.78° C | 63% | 963.9 hPa | 0 mm | 0 m/s | - | - |
| 1777963935 | 12.78° C | 62% | 963.8 hPa | 0 mm | 0 m/s | - | - |
| 1777963538 | 12.78° C | 62% | 963.7 hPa | 0 mm | 0 m/s | - | - |
| 1777963137 | 12.78° C | 62% | 963.7 hPa | 0 mm | 1.79 m/s, 300° | - | - |
| 1777962739 | 12.78° C | 63% | 963.8 hPa | 0 mm | 0.89 m/s, 294° | - | - |
| 1777962338 | 12.78° C | 64% | 963.7 hPa | 0 mm | 0 m/s | - | - |
| 1777961941 | 12.78° C | 66% | 963.7 hPa | 0 mm | 2.24 m/s, 297° | - | - |
| 1777961540 | 13.33° C | 68% | 963.6 hPa | 0 mm | 0 m/s | - | - |
| 1777961143 | 13.33° C | 70% | 963.6 hPa | 0 mm | 0 m/s | - | - |
| 1777960742 | 13.33° C | 70% | 963.6 hPa | 0 mm | 0.89 m/s, 233° | - | - |
| 1777960345 | 13.33° C | 71% | 963.5 hPa | 0 mm | 0 m/s | - | - |
| 1777959944 | 13.33° C | 71% | 963.5 hPa | 0 mm | 0 m/s | - | - |
| 1777959546 | 13.33° C | 72% | 963.2 hPa | 0 mm | 2.24 m/s, 257° | - | - |
| 1777959146 | 13.33° C | 73% | 962.9 hPa | 0 mm | 1.79 m/s, 257° | - | - |
| 1777958748 | 13.33° C | 73% | 963 hPa | 0 mm | 2.24 m/s, 315° | - | - |
| 1777958347 | 13.33° C | 73% | 962.9 hPa | 0 mm | 0.45 m/s, 293° | - | - |
| 1777957549 | 13.33° C | 75% | 962.8 hPa | 0 mm | 0.45 m/s, 243° | - | - |
| 1777957152 | 13.33° C | 76% | 963 hPa | 0 mm | 0.45 m/s, 269° | - | - |
* Rain latest hour (hover to see other rain measurements)
** Current wind speed in m/s (hover to see current wind gust speed)